| time (UTC) | temp C | wind direction | speed KPH | gust KPH | rain 1hr cm | rain 24hr cm | rain mn cm | humidity % | barometer mb |
| 20260506165347 | 12 | 114 | 1.6 | 3.2 | 0.00 | 1.32 | 1.32 | 99 | 1005.7 |
| 20260506164843 | 12 | 275 | 3.2 | 4.8 | 0.00 | 1.32 | 1.32 | 99 | 1005.7 |
| 20260506164340 | 12 | 149 | 0.0 | 0.0 | 0.00 | 1.32 | 1.32 | 99 | 1005.6 |
| 20260506163838 | 12 | 138 | 3.2 | 3.2 | 0.13 | 1.32 | 1.32 | 99 | 1005.5 |
| 20260506163332 | 12 | 115 | 3.2 | 4.8 | 0.00 | 1.30 | 1.30 | 99 | 1005.6 |
| 20260506162827 | 12 | 106 | 1.6 | 3.2 | 0.18 | 1.30 | 1.30 | 99 | 1005.8 |
| 20260506162325 | 12 | 112 | 0.0 | 1.6 | 0.18 | 1.30 | 1.30 | 99 | 1005.6 |
| 20260506161822 | 12 | 147 | 4.8 | 4.8 | 0.13 | 1.27 | 1.27 | 99 | 1005.6 |
| 20260506161320 | 12 | 210 | 3.2 | 4.8 | 0.43 | 1.27 | 1.27 | 99 | 1005.8 |
| 20260506160817 | 12 | 333 | 0.0 | 0.0 | 0.48 | 1.24 | 1.24 | 99 | 1006.0 |
| 20260506160313 | 12 | 106 | 3.2 | 3.2 | 0.36 | 1.19 | 1.19 | 99 | 1006.0 |
| 20260506155812 | 12 | 214 | 0.0 | 3.2 | 0.30 | 1.17 | 1.17 | 99 | 1006.0 |
| 20260506155308 | 12 | 288 | 1.6 | 3.2 | 0.30 | 1.14 | 1.14 | 99 | 1005.8 |
| 20260506153416 | 12 | 259 | 0.0 | 1.6 | 0.48 | 0.97 | 0.97 | 99 | 1006.0 |
| 20260506152913 | 12 | 228 | 3.2 | 3.2 | 0.30 | 0.94 | 0.94 | 99 | 1005.9 |
| 20260506152410 | 12 | 108 | 1.6 | 1.6 | 0.13 | 0.89 | 0.89 | 99 | 1005.9 |
| 20260506151909 | 12 | 226 | 0.0 | 3.2 | 0.30 | 0.89 | 0.89 | 99 | 1005.9 |
| 20260506151405 | 12 | 207 | 0.0 | 1.6 | 0.18 | 0.86 | 0.86 | 99 | 1005.8 |
| 20260506150903 | 12 | 244 | 1.6 | 3.2 | 0.18 | 0.84 | 0.84 | 99 | 1005.7 |
| 20260506150359 | 12 | 200 | 0.0 | 1.6 | 0.18 | 0.84 | 0.84 | 99 | 1005.9 |
| 20260506145856 | 12 | 280 | 1.6 | 3.2 | 0.13 | 0.81 | 0.81 | 99 | 1005.7 |
| 20260506145352 | 12 | 230 | 0.0 | 0.0 | 0.30 | 0.81 | 0.81 | 99 | 1005.7 |
| 20260506144850 | 12 | 85 | 1.6 | 4.8 | 0.18 | 0.79 | 0.79 | 99 | 1005.7 |
| 20260506144346 | 12 | 224 | 0.0 | 3.2 | 0.13 | 0.76 | 0.76 | 99 | 1005.6 |
| 20260506143844 | 12 | 70 | 4.8 | 6.4 | 0.13 | 0.76 | 0.76 | 99 | 1005.7 |
| 20260506143341 | 12 | 214 | 0.0 | 4.8 | 0.18 | 0.74 | 0.74 | 99 | 1005.6 |
| 20260506142839 | 12 | 228 | 0.0 | 4.8 | 0.30 | 0.74 | 0.74 | 99 | 1005.7 |
| 20260506142337 | 12 | 62 | 0.0 | 1.6 | 0.30 | 0.71 | 0.71 | 99 | 1005.8 |
| 20260506141835 | 12 | 228 | 0.0 | 4.8 | 0.18 | 0.69 | 0.69 | 99 | 1006.1 |
| 20260506141333 | 12 | 70 | 0.0 | 1.6 | 0.30 | 0.66 | 0.66 | 99 | 1006.2 |
| 20260506140831 | 12 | 27 | 3.2 | 4.8 | 0.43 | 0.66 | 0.66 | 99 | 1006.2 |
| 20260506140327 | 12 | 199 | 3.2 | 3.2 | 0.30 | 0.61 | 0.61 | 99 | 1006.3 |
| 20260506135824 | 12 | 186 | 3.2 | 9.7 | 0.30 | 0.58 | 0.58 | 99 | 1006.6 |
| 20260506135321 | 12 | 199 | 0.0 | 1.6 | 0.30 | 0.56 | 0.56 | 99 | 1006.8 |
| 20260506134817 | 12 | 80 | 0.0 | 3.2 | 0.18 | 0.53 | 0.53 | 99 | 1006.6 |
| 20260506134313 | 12 | 230 | 0.0 | 0.0 | 0.30 | 0.51 | 0.51 | 99 | 1006.8 |
| 20260506133811 | 12 | 226 | 0.0 | 0.0 | 0.30 | 0.48 | 0.48 | 99 | 1006.9 |
| 20260506133308 | 11 | 136 | 0.0 | 0.0 | 0.30 | 0.46 | 0.46 | 99 | 1007.0 |
| 20260506132804 | 12 | 220 | 0.0 | 0.0 | 0.30 | 0.43 | 0.43 | 99 | 1007.1 |
| 20260506132302 | 12 | 220 | 0.0 | 0.0 | 0.30 | 0.41 | 0.41 | 99 | 1007.2 |
| 20260506131800 | 12 | 222 | 0.0 | 0.0 | 0.30 | 0.36 | 0.36 | 99 | 1007.2 |
| 20260506131255 | 11 | 223 | 0.0 | 0.0 | 0.48 | 0.36 | 0.36 | 99 | 1007.3 |
| 20260506130752 | 11 | 220 | 0.0 | 0.0 | 0.30 | 0.30 | 0.30 | 99 | 1007.1 |
| 20260506130249 | 11 | 219 | 0.0 | 0.0 | 0.30 | 0.28 | 0.28 | 99 | 1007.2 |
| 20260506125747 | 11 | 219 | 0.0 | 0.0 | 0.18 | 0.25 | 0.25 | 99 | 1007.2 |
| 20260506125244 | 11 | 219 | 0.0 | 0.0 | 0.18 | 0.23 | 0.23 | 99 | 1006.6 |
| 20260506124743 | 11 | 219 | 0.0 | 0.0 | 0.18 | 0.23 | 0.23 | 99 | 1006.6 |
| 20260506124240 | 11 | 218 | 0.0 | 0.0 | 0.13 | 0.20 | 0.20 | 99 | 1006.9 |
| 20260506123738 | 11 | 218 | 0.0 | 0.0 | 0.13 | 0.20 | 0.20 | 99 | 1007.0 |
| 20260506123237 | 11 | 218 | 0.0 | 0.0 | 0.00 | 0.18 | 0.18 | 99 | 1006.6 |
| 20260506122732 | 11 | 218 | 0.0 | 0.0 | 0.18 | 0.18 | 0.18 | 99 | 1006.9 |
| 20260506122229 | 11 | 218 | 0.0 | 0.0 | 0.18 | 0.18 | 0.18 | 99 | 1006.6 |
| 20260506121728 | 11 | 218 | 0.0 | 0.0 | 0.00 | 0.15 | 0.15 | 99 | 1006.9 |
| 20260506121225 | 11 | 218 | 0.0 | 0.0 | 0.00 | 0.15 | 0.15 | 99 | 1006.9 |
| 20260506120722 | 11 | 218 | 0.0 | 0.0 | 0.00 | 0.15 | 0.15 | 99 | 1007.1 |
| 20260506120219 | 11 | 218 | 0.0 | 0.0 | 0.13 | 0.15 | 0.15 | 99 | 1007.2 |
| 20260506115717 | 11 | 218 | 0.0 | 0.0 | 0.00 | 0.13 | 0.13 | 99 | 1007.2 |
| 20260506115215 | 11 | 218 | 0.0 | 0.0 | 0.18 | 0.13 | 0.13 | 99 | 1007.0 |
| 20260506114712 | 11 | 218 | 0.0 | 0.0 | 0.18 | 0.13 | 0.13 | 99 | 1007.2 |
| 20260506114210 | 11 | 218 | 0.0 | 0.0 | 0.13 | 0.10 | 0.10 | 99 | 1007.0 |
| 20260506113708 | 11 | 218 | 0.0 | 0.0 | 0.30 | 0.10 | 0.10 | 99 | 1007.3 |
| 20260506113205 | 11 | 216 | 0.0 | 0.0 | 0.30 | 0.08 | 0.08 | 99 | 1007.1 |
| 20260506112701 | 11 | 216 | 0.0 | 0.0 | 0.30 | 0.05 | 0.05 | 99 | 1007.2 |
| 20260506112159 | 11 | 217 | 0.0 | 0.0 | 0.18 | 0.03 | 0.03 | 99 | 1007.2 |
| 20260506111657 | 11 | 217 | 0.0 | 0.0 | 0.00 | 0.00 | 0.00 | 98 | 1007.5 |
| 20260506111154 | 11 | 217 | 0.0 | 0.0 | 0.00 | 0.00 | 0.00 | 98 | 1007.4 |
| 20260506110651 | 11 | 217 | 0.0 | 0.0 | 0.00 | 0.00 | 0.00 | 98 | 1007.2 |
| 20260506110149 | 11 | 217 | 0.0 | 0.0 | 0.00 | 0.00 | 0.00 | 97 | 1007.1 |
| 20260506105645 | 11 | 217 | 0.0 | 0.0 | 0.13 | 0.08 | 0.08 | 97 | 1007.0 |
| 20260506105142 | 11 | 217 | 0.0 | 0.0 | 0.13 | 0.08 | 0.08 | 96 | 1007.0 |
| 20260506104641 | 11 | 217 | 0.0 | 0.0 | 0.00 | 0.05 | 0.05 | 96 | 1006.8 |
| 20260506104138 | 11 | 217 | 0.0 | 0.0 | 0.00 | 0.05 | 0.05 | 96 | 1006.8 |
| 20260506103635 | 11 | 218 | 0.0 | 0.0 | 0.00 | 0.05 | 0.05 | 95 | 1006.8 |
| 20260506103132 | 11 | 218 | 0.0 | 0.0 | 0.00 | 0.05 | 0.05 | 94 | 1006.8 |
| 20260506102630 | 11 | 218 | 0.0 | 0.0 | 0.00 | 0.05 | 0.05 | 93 | 1006.9 |
| 20260506102127 | 11 | 218 | 0.0 | 0.0 | 0.00 | 0.05 | 0.05 | 92 | 1006.8 |
| 20260506101623 | 12 | 218 | 0.0 | 0.0 | 0.00 | 0.05 | 0.05 | 91 | 1006.8 |
| 20260506101120 | 12 | 217 | 0.0 | 0.0 | 0.00 | 0.05 | 0.05 | 88 | 1006.9 |
| 20260506100619 | 12 | 216 | 0.0 | 0.0 | 0.00 | 0.05 | 0.05 | 87 | 1006.9 |
| 20260506100116 | 12 | 206 | 0.0 | 0.0 | 0.00 | 0.05 | 0.05 | 87 | 1006.9 |
| 20260506095615 | 12 | 232 | 0.0 | 0.0 | 0.00 | 0.05 | 0.05 | 84 | 1006.8 |
| 20260506095111 | 13 | 232 | 0.0 | 0.0 | 0.00 | 0.05 | 0.05 | 82 | 1006.8 |
| 20260506094609 | 13 | 233 | 0.0 | 0.0 | 0.00 | 0.05 | 0.05 | 79 | 1006.6 |
| 20260506094106 | 13 | 233 | 0.0 | 0.0 | 0.00 | 0.05 | 0.05 | 77 | 1006.6 |
| 20260506093605 | 13 | 212 | 0.0 | 0.0 | 0.00 | 0.05 | 0.05 | 77 | 1006.5 |
| 20260506093102 | 13 | 219 | 0.0 | 0.0 | 0.00 | 0.05 | 0.05 | 75 | 1006.5 |
| 20260506092600 | 13 | 232 | 0.0 | 0.0 | 0.00 | 0.05 | 0.05 | 75 | 1006.5 |
| 20260506092056 | 13 | 188 | 0.0 | 0.0 | 0.00 | 0.05 | 0.05 | 73 | 1006.5 |
| 20260506091554 | 14 | 213 | 0.0 | 0.0 | 0.00 | 0.05 | 0.05 | 73 | 1006.8 |
| 20260506091052 | 14 | 227 | 0.0 | 0.0 | 0.00 | 0.05 | 0.05 | 72 | 1006.6 |
| 20260506090549 | 14 | 218 | 0.0 | 0.0 | 0.00 | 0.05 | 0.05 | 74 | 1006.9 |
| 20260506090045 | 14 | 210 | 0.0 | 0.0 | 0.00 | 0.05 | 0.05 | 73 | 1006.8 |
| 20260506085542 | 14 | 286 | 0.0 | 0.0 | 0.00 | 0.05 | 0.05 | 70 | 1006.9 |
| 20260506085039 | 13 | 169 | 0.0 | 0.0 | 0.00 | 0.05 | 0.05 | 71 | 1007.0 |
| 20260506084536 | 13 | 235 | 0.0 | 1.6 | 0.00 | 0.05 | 0.05 | 71 | 1007.1 |
| 20260506084032 | 13 | 192 | 0.0 | 0.0 | 0.00 | 0.05 | 0.05 | 74 | 1007.0 |
| 20260506083529 | 13 | 216 | 0.0 | 0.0 | 0.00 | 0.05 | 0.05 | 75 | 1006.8 |
| 20260506083026 | 13 | 202 | 0.0 | 0.0 | 0.00 | 0.05 | 0.05 | 76 | 1006.8 |
| 20260506082523 | 13 | 218 | 0.0 | 0.0 | 0.00 | 0.05 | 0.05 | 77 | 1006.8 |
| 20260506082019 | 13 | 226 | 0.0 | 0.0 | 0.00 | 0.05 | 0.05 | 76 | 1006.9 |
| 20260506081517 | 13 | 190 | 0.0 | 0.0 | 0.00 | 0.05 | 0.05 | 77 | 1006.9 |
| 20260506081015 | 13 | 211 | 0.0 | 1.6 | 0.00 | 0.05 | 0.05 | 76 | 1006.9 |
| 20260506080512 | 13 | 206 | 0.0 | 1.6 | 0.00 | 0.05 | 0.05 | 75 | 1007.1 |
| 20260506073455 | 12 | 229 | 0.0 | 0.0 | 0.00 | 0.05 | 0.05 | 83 | 1007.3 |
| 20260506072952 | 12 | 200 | 0.0 | 0.0 | 0.00 | 0.05 | 0.05 | 84 | 1007.3 |
| 20260506072449 | 12 | 213 | 0.0 | 0.0 | 0.00 | 0.05 | 0.05 | 87 | 1007.4 |
| 20260506071947 | 11 | 193 | 0.0 | 0.0 | 0.00 | 0.05 | 0.05 | 89 | 1007.6 |
| 20260506071445 | 11 | 210 | 0.0 | 0.0 | 0.00 | 0.05 | 0.05 | 89 | 1007.3 |
| 20260506070942 | 11 | 215 | 0.0 | 0.0 | 0.00 | 0.05 | 0.05 | 91 | 1007.3 |
| 20260506070439 | 11 | 199 | 0.0 | 0.0 | 0.00 | 0.05 | 0.05 | 94 | 1007.4 |
| 20260506062416 | 10 | 202 | 0.0 | 0.0 | 0.00 | 0.05 | 0.05 | 99 | 1007.9 |
| 20260506061912 | 10 | 201 | 0.0 | 0.0 | 0.00 | 0.05 | 0.05 | 99 | 1007.9 |
| 20260506061409 | 10 | 201 | 0.0 | 0.0 | 0.00 | 0.05 | 0.05 | 99 | 1007.9 |
| 20260506060907 | 10 | 201 | 0.0 | 0.0 | 0.00 | 0.05 | 0.05 | 99 | 1008.1 |
| 20260506060404 | 10 | 201 | 0.0 | 0.0 | 0.00 | 0.05 | 0.05 | 99 | 1008.2 |
| 20260506051336 | 10 | 209 | 0.0 | 0.0 | 0.00 | 0.05 | 0.05 | 99 | 1008.6 |
| 20260506050834 | 10 | 209 | 0.0 | 0.0 | 0.00 | 0.05 | 0.05 | 99 | 1008.7 |
| 20260506050331 | 10 | 219 | 0.0 | 0.0 | 0.00 | 0.05 | 0.05 | 98 | 1008.8 |
| 20260506044822 | 10 | 216 | 0.0 | 0.0 | 0.00 | 0.05 | 0.05 | 98 | 1008.9 |
| 20260506044320 | 11 | 216 | 0.0 | 0.0 | 0.00 | 0.05 | 0.05 | 97 | 1008.8 |
| 20260506043816 | 11 | 216 | 0.0 | 0.0 | 0.00 | 0.05 | 0.05 | 97 | 1009.1 |
| 20260506043314 | 11 | 216 | 0.0 | 0.0 | 0.00 | 0.05 | 0.05 | 96 | 1009.2 |
| 20260506042812 | 11 | 216 | 0.0 | 0.0 | 0.00 | 0.05 | 0.05 | 96 | 1009.2 |
| 20260506042310 | 11 | 216 | 0.0 | 0.0 | 0.00 | 0.05 | 0.05 | 95 | 1009.1 |
| 20260506041809 | 11 | 216 | 0.0 | 0.0 | 0.00 | 0.05 | 0.05 | 95 | 1009.3 |
| 20260506041305 | 11 | 217 | 0.0 | 0.0 | 0.00 | 0.05 | 0.05 | 94 | 1009.1 |
| 20260506040803 | 11 | 217 | 0.0 | 0.0 | 0.00 | 0.05 | 0.05 | 94 | 1009.2 |
| 20260506040300 | 11 | 217 | 0.0 | 0.0 | 0.00 | 0.05 | 0.05 | 92 | 1009.3 |
| 20260506035756 | 12 | 217 | 0.0 | 0.0 | 0.00 | 0.05 | 0.05 | 92 | 1009.2 |
| 20260506035254 | 12 | 217 | 0.0 | 0.0 | 0.00 | 0.05 | 0.05 | 92 | 1009.3 |
| 20260506034750 | 12 | 238 | 0.0 | 0.0 | 0.00 | 0.05 | 0.05 | 91 | 1009.2 |
| 20260506034248 | 12 | 208 | 0.0 | 0.0 | 0.00 | 0.05 | 0.05 | 90 | 1009.3 |
| 20260506033744 | 12 | 196 | 0.0 | 0.0 | 0.00 | 0.05 | 0.05 | 89 | 1009.1 |
| 20260506033242 | 12 | 230 | 0.0 | 0.0 | 0.00 | 0.05 | 0.05 | 88 | 1009.4 |
| 20260506032739 | 12 | 230 | 0.0 | 0.0 | 0.00 | 0.05 | 0.05 | 89 | 1009.3 |
| 20260506032236 | 12 | 230 | 0.0 | 0.0 | 0.00 | 0.05 | 0.05 | 90 | 1009.3 |
| 20260506031732 | 12 | 230 | 0.0 | 0.0 | 0.00 | 0.05 | 0.05 | 90 | 1009.1 |
| 20260506031229 | 12 | 230 | 0.0 | 0.0 | 0.00 | 0.05 | 0.05 | 91 | 1009.0 |
| 20260506030727 | 13 | 231 | 0.0 | 0.0 | 0.00 | 0.05 | 0.05 | 89 | 1009.0 |
| 20260506030225 | 13 | 231 | 0.0 | 0.0 | 0.00 | 0.05 | 0.05 | 88 | 1008.9 |
| 20260506025721 | 13 | 231 | 0.0 | 0.0 | 0.00 | 0.05 | 0.05 | 87 | 1009.0 |
| 20260506025217 | 13 | 231 | 0.0 | 0.0 | 0.00 | 0.05 | 0.05 | 86 | 1009.0 |
| 20260506024714 | 13 | 231 | 0.0 | 0.0 | 0.00 | 0.05 | 0.05 | 85 | 1009.0 |
| 20260506024211 | 13 | 231 | 0.0 | 0.0 | 0.00 | 0.05 | 0.05 | 85 | 1008.9 |
| 20260506023707 | 13 | 231 | 0.0 | 0.0 | 0.00 | 0.05 | 0.05 | 85 | 1009.1 |
| 20260506023205 | 13 | 231 | 0.0 | 0.0 | 0.00 | 0.05 | 0.05 | 87 | 1009.1 |
| 20260506022701 | 14 | 206 | 0.0 | 0.0 | 0.00 | 0.05 | 0.05 | 86 | 1009.1 |
| 20260506022159 | 14 | 205 | 0.0 | 0.0 | 0.00 | 0.05 | 0.05 | 86 | 1009.2 |
| 20260506021657 | 14 | 205 | 0.0 | 0.0 | 0.00 | 0.05 | 0.05 | 87 | 1009.1 |
| 20260506021154 | 14 | 207 | 0.0 | 0.0 | 0.00 | 0.05 | 0.05 | 85 | 1009.1 |
| 20260506020651 | 14 | 207 | 0.0 | 0.0 | 0.00 | 0.05 | 0.05 | 85 | 1009.0 |
| 20260506020148 | 15 | 207 | 0.0 | 0.0 | 0.00 | 0.05 | 0.05 | 85 | 1009.1 |
| 20260506015646 | 14 | 223 | 0.0 | 0.0 | 0.00 | 0.05 | 0.05 | 83 | 1009.0 |
| 20260506015143 | 14 | 223 | 0.0 | 0.0 | 0.00 | 0.05 | 0.05 | 83 | 1008.7 |
| 20260506014640 | 14 | 223 | 0.0 | 0.0 | 0.00 | 0.05 | 0.05 | 84 | 1008.8 |
| 20260506014136 | 14 | 223 | 0.0 | 0.0 | 0.00 | 0.05 | 0.05 | 84 | 1008.9 |
| 20260506013634 | 14 | 223 | 0.0 | 0.0 | 0.00 | 0.05 | 0.05 | 84 | 1009.2 |
| 20260506013131 | 14 | 223 | 0.0 | 0.0 | 0.00 | 0.05 | 0.05 | 84 | 1009.0 |
| 20260506012627 | 14 | 223 | 0.0 | 0.0 | 0.00 | 0.05 | 0.05 | 84 | 1008.9 |
| 20260506012123 | 14 | 223 | 0.0 | 0.0 | 0.00 | 0.05 | 0.05 | 84 | 1008.7 |
| 20260506011621 | 14 | 223 | 0.0 | 0.0 | 0.00 | 0.05 | 0.05 | 84 | 1008.7 |
| 20260506011118 | 15 | 223 | 0.0 | 0.0 | 0.00 | 0.05 | 0.05 | 84 | 1008.8 |
| 20260506010612 | 15 | 223 | 0.0 | 0.0 | 0.00 | 0.05 | 0.05 | 84 | 1008.8 |
| 20260506010108 | 15 | 223 | 0.0 | 0.0 | 0.00 | 0.05 | 0.05 | 84 | 1008.6 |
| 20260506005605 | 15 | 223 | 0.0 | 0.0 | 0.00 | 0.05 | 0.05 | 84 | 1008.4 |
| 20260506005101 | 15 | 223 | 0.0 | 0.0 | 0.00 | 0.05 | 0.05 | 84 | 1008.4 |
| 20260506004558 | 15 | 223 | 0.0 | 0.0 | 0.00 | 0.05 | 0.05 | 85 | 1008.3 |
| 20260506004055 | 15 | 223 | 0.0 | 0.0 | 0.00 | 0.05 | 0.05 | 84 | 1008.4 |
| 20260506003551 | 15 | 223 | 0.0 | 0.0 | 0.00 | 0.05 | 0.05 | 85 | 1008.3 |
| 20260506003048 | 15 | 216 | 0.0 | 0.0 | 0.00 | 0.05 | 0.05 | 84 | 1008.6 |
| 20260506002543 | 15 | 217 | 0.0 | 0.0 | 0.00 | 0.05 | 0.05 | 85 | 1008.6 |
| 20260506002040 | 15 | 217 | 0.0 | 0.0 | 0.00 | 0.05 | 0.05 | 85 | 1008.4 |
| 20260506001536 | 15 | 216 | 0.0 | 0.0 | 0.00 | 0.05 | 0.05 | 85 | 1008.3 |
| 20260506001033 | 15 | 217 | 0.0 | 0.0 | 0.00 | 0.05 | 0.05 | 87 | 1008.6 |
| 20260506000531 | 15 | 217 | 0.0 | 0.0 | 0.00 | 0.05 | 0.05 | 87 | 1008.6 |
| 20260506000028 | 15 | 217 | 0.0 | 0.0 | 0.00 | 0.05 | 0.05 | 86 | 1008.4 |
| 20260505235520 | 15 | 217 | 0.0 | 0.0 | 0.00 | 0.05 | 0.05 | 85 | 1008.4 |
| 20260505235017 | 15 | 217 | 0.0 | 0.0 | 0.00 | 0.05 | 0.05 | 86 | 1008.3 |
| 20260505234514 | 15 | 217 | 0.0 | 0.0 | 0.00 | 0.05 | 0.05 | 85 | 1008.6 |
| 20260505234011 | 15 | 217 | 0.0 | 0.0 | 0.00 | 0.05 | 0.05 | 86 | 1008.4 |
| 20260505233508 | 15 | 217 | 0.0 | 0.0 | 0.00 | 0.05 | 0.05 | 85 | 1008.3 |
| 20260505233006 | 16 | 217 | 0.0 | 0.0 | 0.00 | 0.05 | 0.05 | 84 | 1008.4 |
| 20260505232504 | 16 | 184 | 0.0 | 0.0 | 0.00 | 0.05 | 0.05 | 83 | 1008.3 |
| 20260505232001 | 16 | 233 | 0.0 | 0.0 | 0.00 | 0.05 | 0.05 | 83 | 1008.6 |
| 20260505231457 | 16 | 216 | 0.0 | 0.0 | 0.00 | 0.05 | 0.05 | 82 | 1008.2 |
| 20260505230956 | 16 | 258 | 0.0 | 0.0 | 0.00 | 0.05 | 0.05 | 82 | 1008.3 |
| 20260505230453 | 16 | 271 | 0.0 | 3.2 | 0.00 | 0.05 | 0.05 | 80 | 1008.1 |
| 20260505225949 | 17 | 245 | 0.0 | 0.0 | 0.00 | 0.05 | 0.05 | 80 | 1007.9 |
| 20260505225446 | 16 | 35 | 0.0 | 1.6 | 0.00 | 0.05 | 0.05 | 76 | 1007.6 |
| 20260505224942 | 16 | 188 | 0.0 | 0.0 | 0.00 | 0.05 | 0.05 | 81 | 1007.8 |
| 20260505224439 | 16 | 288 | 0.0 | 0.0 | 0.00 | 0.05 | 0.05 | 85 | 1007.6 |
| 20260505223936 | 16 | 207 | 0.0 | 0.0 | 0.00 | 0.05 | 0.05 | 85 | 1007.8 |
| 20260505223433 | 16 | 210 | 0.0 | 0.0 | 0.00 | 0.05 | 0.05 | 83 | 1007.7 |
| 20260505222930 | 16 | 210 | 0.0 | 0.0 | 0.00 | 0.05 | 0.05 | 83 | 1007.9 |
| 20260505222426 | 16 | 210 | 0.0 | 0.0 | 0.00 | 0.05 | 0.05 | 80 | 1007.6 |
| 20260505221922 | 17 | 210 | 0.0 | 0.0 | 0.00 | 0.05 | 0.05 | 78 | 1007.7 |
| 20260505221420 | 17 | 196 | 0.0 | 0.0 | 0.00 | 0.05 | 0.05 | 78 | 1007.6 |
| 20260505220917 | 16 | 236 | 0.0 | 0.0 | 0.00 | 0.05 | 0.05 | 78 | 1007.6 |
| 20260505220413 | 16 | 253 | 0.0 | 0.0 | 0.00 | 0.05 | 0.05 | 78 | 1007.7 |
| 20260505215911 | 16 | 242 | 0.0 | 0.0 | 0.00 | 0.05 | 0.05 | 78 | 1007.7 |
| 20260505215409 | 16 | 247 | 0.0 | 0.0 | 0.00 | 0.05 | 0.05 | 81 | 1007.6 |
| 20260505214907 | 16 | 230 | 0.0 | 4.8 | 0.00 | 0.05 | 0.05 | 82 | 1007.7 |
| 20260505214404 | 16 | 189 | 0.0 | 4.8 | 0.00 | 0.05 | 0.05 | 80 | 1007.7 |
| 20260505213901 | 16 | 210 | 0.0 | 1.6 | 0.00 | 0.05 | 0.05 | 80 | 1008.1 |
| 20260505213359 | 16 | 242 | 0.0 | 0.0 | 0.00 | 0.05 | 0.05 | 82 | 1007.7 |
| 20260505212855 | 16 | 215 | 0.0 | 6.4 | 0.00 | 0.05 | 0.05 | 83 | 1007.5 |
| 20260505212352 | 17 | 238 | 0.0 | 1.6 | 0.00 | 0.05 | 0.05 | 78 | 1007.6 |
| 20260505211848 | 16 | 193 | 1.6 | 6.4 | 0.00 | 0.05 | 0.05 | 76 | 1007.7 |
| 20260505211345 | 16 | 119 | 6.4 | 9.7 | 0.00 | 0.05 | 0.05 | 87 | 1007.5 |
| 20260505210841 | 16 | 254 | 0.0 | 0.0 | 0.00 | 0.05 | 0.05 | 89 | 1007.5 |
| 20260505210339 | 16 | 235 | 0.0 | 0.0 | 0.00 | 0.05 | 0.05 | 88 | 1007.1 |
| 20260505205835 | 16 | 236 | 0.0 | 0.0 | 0.18 | 0.05 | 0.05 | 89 | 1007.2 |
| 20260505205334 | 16 | 233 | 0.0 | 0.0 | 0.18 | 0.05 | 0.05 | 87 | 1007.1 |
| 20260505204830 | 16 | 193 | 0.0 | 0.0 | 0.00 | 0.03 | 0.03 | 83 | 1007.2 |
| 20260505204328 | 17 | 255 | 0.0 | 0.0 | 0.13 | 0.03 | 0.03 | 77 | 1007.3 |
| 20260505203825 | 18 | 186 | 1.6 | 6.4 | 0.13 | 0.03 | 0.03 | 65 | 1007.3 |
| 20260505203321 | 21 | 207 | 4.8 | 11.3 | 0.00 | 0.00 | 0.00 | 48 | 1007.1 |
| 20260505202818 | 21 | 125 | 1.6 | 9.7 | 0.00 | 0.00 | 0.00 | 43 | 1006.3 |
| 20260505202314 | 21 | 181 | 1.6 | 6.4 | 0.00 | 0.00 | 0.00 | 41 | 1006.4 |
| 20260505201811 | 22 | 238 | 3.2 | 14.5 | 0.00 | 0.00 | 0.00 | 40 | 1006.3 |
| 20260505201309 | 22 | 273 | 0.0 | 11.3 | 0.00 | 0.00 | 0.00 | 41 | 1006.1 |
| 20260505200807 | 22 | 278 | 1.6 | 14.5 | 0.00 | 0.00 | 0.00 | 39 | 1006.1 |
| 20260505200303 | 22 | 226 | 6.4 | 14.5 | 0.00 | 0.00 | 0.00 | 39 | 1006.4 |
| 20260505195758 | 22 | 85 | 3.2 | 4.8 | 0.00 | 0.00 | 0.00 | 39 | 1006.2 |
| 20260505195257 | 22 | 74 | 1.6 | 4.8 | 0.00 | 0.00 | 0.00 | 39 | 1006.2 |
| 20260505194753 | 22 | 47 | 1.6 | 11.3 | 0.00 | 0.00 | 0.00 | 40 | 1006.3 |
| 20260505194250 | 23 | 347 | 1.6 | 22.5 | 0.00 | 0.00 | 0.00 | 38 | 1006.3 |
| 20260505193745 | 23 | 149 | 3.2 | 14.5 | 0.00 | 0.00 | 0.00 | 38 | 1006.3 |
| 20260505193243 | 23 | 150 | 12.9 | 16.1 | 0.00 | 0.00 | 0.00 | 38 | 1006.3 |
| 20260505192742 | 23 | 156 | 9.7 | 16.1 | 0.00 | 0.00 | 0.00 | 38 | 1006.4 |
| 20260505192239 | 23 | 234 | 3.2 | 9.7 | 0.00 | 0.00 | 0.00 | 38 | 1006.2 |
| 20260505191737 | 23 | 109 | 8.0 | 25.7 | 0.00 | 0.00 | 0.00 | 38 | 1006.3 |
| 20260505191235 | 23 | 96 | 6.4 | 16.1 | 0.00 | 0.00 | 0.00 | 40 | 1006.5 |
| 20260505190731 | 22 | 226 | 1.6 | 6.4 | 0.00 | 0.00 | 0.00 | 39 | 1006.5 |
| 20260505190226 | 22 | 48 | 3.2 | 6.4 | 0.00 | 0.00 | 0.00 | 41 | 1006.9 |
| 20260505185722 | 22 | 201 | 1.6 | 9.7 | 0.00 | 0.00 | 0.00 | 39 | 1006.5 |
| 20260505185219 | 23 | 94 | 4.8 | 6.4 | 0.00 | 0.00 | 0.00 | 39 | 1006.6 |
| 20260505184715 | 23 | 49 | 4.8 | 12.9 | 0.00 | 0.00 | 0.00 | 38 | 1007.0 |
| 20260505184213 | 23 | 238 | 4.8 | 16.1 | 0.00 | 0.00 | 0.00 | 40 | 1007.0 |
| 20260505183709 | 23 | 141 | 3.2 | 12.9 | 0.00 | 0.00 | 0.00 | 38 | 1006.6 |
| 20260505183207 | 23 | 140 | 4.8 | 17.7 | 0.00 | 0.00 | 0.00 | 39 | 1006.8 |
| 20260505182702 | 23 | 318 | 8.0 | 11.3 | 0.00 | 0.00 | 0.00 | 39 | 1007.0 |
| 20260505182200 | 23 | 77 | 1.6 | 6.4 | 0.00 | 0.00 | 0.00 | 42 | 1007.1 |
| 20260505181656 | 23 | 250 | 4.8 | 16.1 | 0.00 | 0.00 | 0.00 | 43 | 1007.1 |
| 20260505181154 | 23 | 161 | 6.4 | 17.7 | 0.00 | 0.00 | 0.00 | 41 | 1007.3 |
| 20260505180650 | 23 | 89 | 6.4 | 12.9 | 0.00 | 0.00 | 0.00 | 43 | 1007.3 |
| 20260505180147 | 22 | 211 | 6.4 | 11.3 | 0.00 | 0.00 | 0.00 | 43 | 1007.5 |
| 20260505175643 | 22 | 119 | 1.6 | 14.5 | 0.00 | 0.00 | 0.00 | 44 | 1007.4 |
| 20260505175139 | 22 | 221 | 3.2 | 9.7 | 0.00 | 0.00 | 0.00 | 44 | 1007.5 |
| 20260505174636 | 23 | 153 | 6.4 | 14.5 | 0.00 | 0.00 | 0.00 | 44 | 1007.4 |
| 20260505174132 | 23 | 112 | 6.4 | 14.5 | 0.00 | 0.00 | 0.00 | 42 | 1007.5 |
| 20260505173629 | 23 | 147 | 0.0 | 14.5 | 0.00 | 0.00 | 0.00 | 43 | 1007.1 |
| 20260505173126 | 23 | 268 | 3.2 | 6.4 | 0.00 | 0.00 | 0.00 | 44 | 1007.3 |
| 20260505172624 | 22 | 85 | 3.2 | 4.8 | 0.00 | 0.00 | 0.00 | 46 | 1007.1 |
| 20260505172120 | 22 | 257 | 1.6 | 4.8 | 0.00 | 0.00 | 0.00 | 45 | 1007.1 |
| 20260505171615 | 22 | 86 | 3.2 | 11.3 | 0.00 | 0.00 | 0.00 | 47 | 1007.1 |
| 20260505171112 | 22 | 162 | 8.0 | 17.7 | 0.00 | 0.00 | 0.00 | 43 | 1007.1 |
| 20260505170609 | 23 | 178 | 8.0 | 11.3 | 0.00 | 0.00 | 0.00 | 45 | 1006.9 |
| 20260505170105 | 23 | 21 | 6.4 | 6.4 | 0.00 | 0.00 | 0.00 | 45 | 1007.0 |